This is the latest recevied weather packets stored in our database for station/object RV1CJ-14. If no packets are shown the sender has not sent any weather packets the latest 10 day(s).
| Time | Temp. | Humidity | Pressure | Rain* | Wind** | Luminosity | Snow |
|---|---|---|---|---|---|---|---|
| 1777807203 | 12.78° C | 71% | 1003.8 hPa | 0 mm | - | 76 W/m² | - |
| 1777806603 | 12.78° C | 70% | 1003.8 hPa | 0 mm | - | 76 W/m² | - |
| 1777806004 | 13.33° C | 68% | 1003.8 hPa | 0 mm | - | 144 W/m² | - |
| 1777805403 | 13.89° C | 67% | 1003.6 hPa | 0 mm | - | 114 W/m² | - |
| 1777804803 | 14.44° C | 67% | 1003.5 hPa | 0 mm | - | 183 W/m² | - |
| 1777804203 | 13.89° C | 68% | 1003.5 hPa | 0 mm | - | 165 W/m² | - |
| 1777803603 | 13.89° C | 68% | 1003.4 hPa | 0 mm | - | 109 W/m² | - |
| 1777803003 | 13.33° C | 69% | 1003.6 hPa | 0 mm | - | 125 W/m² | - |
| 1777802403 | 12.78° C | 69% | 1003.5 hPa | 0 mm | - | 183 W/m² | - |
| 1777801803 | 13.33° C | 68% | 1003.7 hPa | 0 mm | - | 554 W/m² | - |
| 1777801203 | 14.44° C | 65% | 1003.7 hPa | 0 mm | - | 540 W/m² | - |
| 1777800603 | 15° C | 63% | 1003.6 hPa | 0 mm | - | 656 W/m² | - |
| 1777800003 | 15° C | 62% | 1003.6 hPa | 0 mm | - | 737 W/m² | - |
| 1777799404 | 15° C | 62% | 1003.2 hPa | 0 mm | - | 612 W/m² | - |
| 1777798803 | 15° C | 62% | 1003.1 hPa | 0 mm | - | 483 W/m² | - |
| 1777798203 | 15° C | 62% | 1003 hPa | 0 mm | - | 592 W/m² | - |
| 1777797603 | 16.11° C | 59% | 1002.9 hPa | 0 mm | - | 244 W/m² | - |
| 1777797003 | 16.67° C | 58% | 1002.6 hPa | 0 mm | - | 473 W/m² | - |
| 1777796403 | 17.22° C | 56% | 1002.6 hPa | 0 mm | - | 397 W/m² | - |
| 1777795803 | 17.78° C | 54% | 1002.5 hPa | 0 mm | - | 468 W/m² | - |
| 1777795203 | 18.89° C | 53% | 1002.3 hPa | 0 mm | - | 288 W/m² | - |
| 1777794603 | 18.89° C | 52% | 1002.1 hPa | 0 mm | - | 360 W/m² | - |
| 1777794003 | 18.89° C | 52% | 1002.2 hPa | 0 mm | - | 684 W/m² | - |
| 1777793403 | 18.89° C | 52% | 1002.2 hPa | 0 mm | - | 561 W/m² | - |
| 1777792803 | 18.89° C | 52% | 1002.1 hPa | 0 mm | - | 745 W/m² | - |
* Rain latest hour (hover to see other rain measurements)
** Current wind speed in m/s (hover to see current wind gust speed)